Location: Friendly Valley
(37.6901°N, 89.9107°W)
Time: 10:55:35
(UTC+00:00)

NANOSAT C BR1 - Visible Passes

Search period start: 09 December 2025 00:00
Search period end: 19 December 2025 00:00
Orbit: 489 x 496 km, 98.1° (Epoch: 08 December)

Date Brightness Start Highest point End Pass type
(mag) Time Alt. Az. Time Alt. Az. Time Alt. Az.
09 Dec ? 23:22:15 10° SE 23:25:25 29° ENE 23:28:36 10° N visible
10 Dec ? 00:56:54 10° SW 00:58:59 15° W 01:01:04 10° WNW visible
10 Dec ? 12:25:05 10° NNE 12:28:33 42° E 12:31:59 10° S visible
11 Dec ? 00:33:43 10° SSW 00:36:52 28° W 00:40:01 10° NW visible
11 Dec ? 12:03:36 10° NE 12:06:27 21° E 12:09:17 10° SSE visible
12 Dec ? 00:11:13 10° S 00:14:46 57° WSW 00:18:21 10° NNW visible
12 Dec ? 11:43:06 10° ENE 11:44:15 11° E 11:45:23 10° ESE visible
12 Dec ? 23:49:07 10° SSE 23:52:42 67° ENE 23:56:19 10° N visible
13 Dec ? 23:27:25 10° SE 23:30:41 32° ENE 23:33:57 10° N visible
14 Dec ? 01:02:33 10° WSW 01:04:17 13° W 01:06:01 10° WNW visible
14 Dec ? 12:30:14 10° NNE 12:33:45 48° E 12:37:15 10° S visible
15 Dec ? 00:38:59 10° SSW 00:42:00 25° W 00:45:02 10° NW visible
15 Dec ? 12:08:32 10° NE 12:11:31 24° E 12:14:29 10° SSE visible
16 Dec ? 00:16:14 10° S 00:19:44 50° W 00:23:17 10° NNW visible
16 Dec ? 11:47:35 10° ENE 11:49:10 12° E 11:50:45 10° ESE visible
16 Dec ? 23:53:55 10° SSE 23:57:31 75° ENE 00:01:09 10° N visible
17 Dec ? 23:32:01 10° SE 23:35:20 35° ENE 23:38:40 10° N visible
18 Dec ? 01:07:35 10° WSW 01:08:58 12° W 01:10:21 10° WNW visible
18 Dec ? 12:34:47 10° NNE 12:38:20 53° E 12:41:53 10° S visible
18 Dec ? 23:10:35 10° ESE 23:13:11 19° ENE 23:15:46 10° NNE visible
